GW0019 Weather Reports


time (UTC)temp
C
wind
direction
speed
KPH
gust
KPH
rain 1hr
cm
rain 24hr
cm
rain mn
cm
humidity
%
barometer
mb
20260903235317 -17 0.0 0.0 0.00 0.00 0.00 1016.1
20260903234815 -17 0.0 0.0 0.00 0.00 0.00 1016.0
20260903234312 -17 0.0 0.0 0.00 0.00 0.00 1015.8
20260903233808 -17 0.0 0.0 0.00 0.00 0.00 1015.8
20260903233303 -17 0.0 0.0 0.00 0.00 0.00 1016.2
20260903232802 36 216 8.0 9.7 0.00 0.00 0.00 77 1016.0
20260903232259 36 216 8.0 9.7 0.00 0.00 0.00 77 1016.0
20260903231757 36 216 8.0 9.7 0.00 0.00 0.00 77 1016.0
20260903231253 36 216 8.0 9.7 0.00 0.00 0.00 77 1015.8
20260903230748 36 216 8.0 9.7 0.00 0.00 0.00 77 1016.2
20260903230248 36 216 8.0 9.7 0.00 0.00 0.00 77 1016.0
20260903225744 36 216 8.0 9.7 0.00 0.00 0.00 77 1015.7
20260903225241 36 216 8.0 9.7 0.00 0.00 0.00 77 1015.7
20260903224737 36 216 8.0 9.7 0.00 0.00 0.00 77 1015.8
20260903224233 36 216 8.0 9.7 0.00 0.00 0.00 77 1015.8
20260903223727 36 216 8.0 9.7 0.00 0.00 0.00 77 1015.8
20260903223226 36 216 8.0 9.7 0.00 0.00 0.00 77 1015.7
20260903222721 36 162 4.8 14.5 0.00 0.00 0.00 77 1015.7
20260903222220 35 222 8.0 9.7 0.00 0.00 0.00 77 1016.0
20260903221715 36 195 3.2 14.5 0.00 0.00 0.00 77 1015.8
20260903221214 35 215 9.7 16.1 0.00 0.00 0.00 77 1016.0
20260903220712 35 211 16.1 16.1 0.00 0.00 0.00 77 1016.0
20260903220208 35 211 16.1 16.1 0.00 0.00 0.00 77 1016.0
20260903215706 35 211 16.1 16.1 0.00 0.00 0.00 77 1016.1
20260903215202 35 198 14.5 14.5 0.00 0.00 0.00 77 1016.0
20260903214700 35 198 14.5 14.5 0.00 0.00 0.00 77 1016.0
20260903214156 36 255 12.9 12.9 0.00 0.00 0.00 77 1016.1
20260903213650 36 255 12.9 12.9 0.00 0.00 0.00 77 1016.1
20260903213147 36 159 11.3 11.3 0.00 0.00 0.00 77 1016.1
20260903212642 35 165 4.8 6.4 0.00 0.00 0.00 77 1016.4
20260903212137 35 165 4.8 6.4 0.00 0.00 0.00 77 1016.3
20260903211632 35 200 17.7 19.3 0.00 0.00 0.00 77 1016.3
20260903211129 35 200 17.7 19.3 0.00 0.00 0.00 77 1016.2
20260903210624 35 201 6.4 6.4 0.00 0.00 0.00 77 1016.5
20260903210120 35 191 8.0 16.1 0.00 0.00 0.00 77 1016.4
20260903205619 35 206 3.2 12.9 0.00 0.00 0.00 77 1016.5
20260903205113 35 206 3.2 12.9 0.00 0.00 0.00 77 1016.5
20260903204609 35 212 11.3 12.9 0.00 0.00 0.00 77 1016.5
20260903204104 36 204 16.1 17.7 0.00 0.00 0.00 77 1016.5
20260903203559 36 208 4.8 6.4 0.00 0.00 0.00 77 1016.4
20260903203054 35 209 11.3 12.9 0.00 0.00 0.00 77 1016.9
20260903202550 35 209 11.3 12.9 0.00 0.00 0.00 77 1016.6
20260903202045 35 209 11.3 12.9 0.00 0.00 0.00 77 1016.9
20260903201539 35 209 11.3 12.9 0.00 0.00 0.00 77 1016.6
20260903201038 35 200 9.7 11.3 0.00 0.00 0.00 77 1016.7
20260903200533 35 200 9.7 11.3 0.00 0.00 0.00 77 1016.9
20260903200029 35 200 9.7 14.5 0.00 0.00 0.00 77 1016.9
20260903195525 35 202 14.5 17.7 0.00 0.00 0.00 77 1017.1
20260903195020 35 156 14.5 24.1 0.00 0.00 0.00 77 1016.9
20260903194515 35 225 14.5 19.3 0.00 0.00 0.00 77 1016.9
20260903194010 35 225 14.5 19.3 0.00 0.00 0.00 77 1017.2
20260903193507 35 157 11.3 11.3 0.00 0.00 0.00 77 1017.3
20260903193001 35 209 3.2 14.5 0.00 0.00 0.00 77 1017.3
20260903192459 35 196 4.8 9.7 0.00 0.00 0.00 77 1017.4
20260903191953 35 231 14.5 14.5 0.00 0.00 0.00 77 1017.4
20260903191449 35 267 11.3 11.3 0.00 0.00 0.00 77 1017.7
20260903190949 35 177 8.0 11.3 0.00 0.00 0.00 77 1017.8
20260903190443 34 97 0.0 9.7 0.00 0.00 0.00 77 1017.6
20260903185943 35 205 11.3 14.5 0.00 0.00 0.00 77 1017.9
20260903185439 33 219 6.4 6.4 0.00 0.00 0.00 77 1017.8
20260903184939 34 217 6.4 11.3 0.00 0.00 0.00 77 1018.1
20260903184436 33 199 6.4 6.4 0.00 0.00 0.00 77 1017.9
20260903183930 34 229 8.0 8.0 0.00 0.00 0.00 77 1018.0
20260903183425 34 229 8.0 11.3 0.00 0.00 0.00 77 1018.0
20260903182924 34 245 6.4 16.1 0.00 0.00 0.00 77 1018.1
20260903182423 34 245 6.4 16.1 0.00 0.00 0.00 77 1018.2
20260903181918 34 197 9.7 9.7 0.00 0.00 0.00 77 1018.4
20260903181413 33 199 3.2 6.4 0.00 0.00 0.00 77 1018.3
20260903180912 33 197 3.2 8.0 0.00 0.00 0.00 77 1018.3
20260903180407 33 234 4.8 4.8 0.00 0.00 0.00 77 1018.5
20260903175907 33 234 4.8 4.8 0.00 0.00 0.00 77 1018.7
20260903175401 33 234 4.8 4.8 0.00 0.00 0.00 77 1018.7
20260903174855 33 246 12.9 12.9 0.00 0.00 0.00 77 1018.7
20260903174350 33 214 4.8 8.0 0.00 0.00 0.00 77 1018.6
20260903173844 33 180 3.2 16.1 0.00 0.00 0.00 77 1018.7
20260903173340 32 221 8.0 16.1 0.00 0.00 0.00 77 1018.8
20260903172836 32 168 0.0 9.7 0.00 0.00 0.00 76 1019.1
20260903172330 32 168 0.0 9.7 0.00 0.00 0.00 76 1019.1
20260903171826 32 168 0.0 9.7 0.00 0.00 0.00 76 1018.8
20260903171321 32 168 0.0 9.7 0.00 0.00 0.00 76 1019.2
20260903170820 32 168 0.0 9.7 0.00 0.00 0.00 76 1019.3
20260903170316 32 168 0.0 9.7 0.00 0.00 0.00 76 1019.3
20260903165814 32 168 0.0 9.7 0.00 0.00 0.00 76 1019.4
20260903165309 32 168 0.0 9.7 0.00 0.00 0.00 76 1019.3
20260903164809 32 240 8.0 9.7 0.00 0.00 0.00 76 1019.3
20260903164304 32 252 9.7 17.7 0.00 0.00 0.00 76 1019.5
20260903163803 32 197 6.4 9.7 0.00 0.00 0.00 76 1019.4
20260903163300 31 199 8.0 8.0 0.00 0.00 0.00 76 1019.4
20260903162756 32 255 4.8 24.1 0.00 0.00 0.00 76 1019.4
20260903162252 32 246 6.4 11.3 0.00 0.00 0.00 76 1019.4
20260903161747 32 134 11.3 12.9 0.00 0.00 0.00 76 1019.8
20260903161243 32 134 11.3 12.9 0.00 0.00 0.00 76 1019.6
20260903160738 32 230 4.8 14.5 0.00 0.00 0.00 76 1019.8
20260903160237 31 199 8.0 17.7 0.00 0.00 0.00 76 1019.6
20260903155736 31 199 8.0 17.7 0.00 0.00 0.00 76 1019.7
20260903155231 31 199 8.0 17.7 0.00 0.00 0.00 76 1019.7
20260903154726 31 196 8.0 20.9 0.00 0.00 0.00 76 1019.7
20260903154222 31 263 6.4 14.5 0.00 0.00 0.00 76 1019.7
20260903153718 32 180 0.0 12.9 0.00 0.00 0.00 76 1019.7
20260903153214 31 221 6.4 14.5 0.00 0.00 0.00 76 1019.7
20260903152710 31 227 4.8 16.1 0.00 0.00 0.00 76 1019.7
20260903152206 31 235 12.9 19.3 0.00 0.00 0.00 76 1020.0
20260903151705 31 232 12.9 12.9 0.00 0.00 0.00 76 1019.7
20260903151200 31 241 12.9 14.5 0.00 0.00 0.00 76 1019.9
20260903150655 30 244 9.7 20.9 0.00 0.00 0.00 76 1019.8
20260903150150 31 210 6.4 17.7 0.00 0.00 0.00 76 1019.8
20260903145649 31 254 6.4 12.9 0.00 0.00 0.00 76 1019.9
20260903145145 31 195 3.2 11.3 0.00 0.00 0.00 76 1019.6
20260903144643 30 227 12.9 19.3 0.00 0.00 0.00 76 1019.6
20260903144140 30 243 6.4 16.1 0.00 0.00 0.00 76 1019.5
20260903143636 30 237 4.8 16.1 0.00 0.00 0.00 76 1019.8
20260903143131 30 250 6.4 16.1 0.00 0.00 0.00 76 1019.6
20260903142627 30 254 6.4 9.7 0.00 0.00 0.00 76 1019.8
20260903142123 30 239 4.8 6.4 0.00 0.00 0.00 76 1019.8
20260903141618 30 240 1.6 6.4 0.00 0.00 0.00 76 1019.6
20260903141108 29 252 3.2 9.7 0.00 0.00 0.00 76 1019.8
20260903140604 29 231 0.0 9.7 0.00 0.00 0.00 76 1020.0
20260903140059 29 199 3.2 6.4 0.00 0.00 0.00 76 1019.7
20260903135555 28 203 4.8 8.0 0.00 0.00 0.00 76 1019.8
20260903135055 28 180 3.2 4.8 0.00 0.00 0.00 76 1019.8
20260903134554 28 208 4.8 4.8 0.00 0.00 0.00 75 1020.0
20260903134050 28 193 4.8 6.4 0.00 0.00 0.00 75 1020.1
20260903133547 -17 0.0 0.0 0.00 0.00 0.00 1020.0
20260903133043 -17 0.0 0.0 0.00 0.00 0.00 1020.2
20260903132537 -17 0.0 0.0 0.00 0.00 0.00 1019.9
20260903132033 -17 0.0 0.0 0.00 0.00 0.00 1020.2
20260903131532 -17 0.0 0.0 0.00 0.00 0.00 1020.0
20260903131031 -17 0.0 0.0 0.00 0.00 0.00 1020.1
20260903130526 -17 0.0 0.0 0.00 0.00 0.00 1020.0
20260903130021 -17 0.0 0.0 0.00 0.00 0.00 1020.0
20260903125519 -17 0.0 0.0 0.00 0.00 0.00 1019.9
20260903125015 -17 0.0 0.0 0.00 0.00 0.00 1020.1
20260903124509 -17 0.0 0.0 0.00 0.00 0.00 1019.8
20260903124009 -17 0.0 0.0 0.00 0.00 0.00 1020.0
20260903123504 -17 0.0 0.0 0.00 0.00 0.00 1019.9
20260903123002 -17 0.0 0.0 0.00 0.00 0.00 1019.9
20260903122456 -17 0.0 0.0 0.00 0.00 0.00 1019.9
20260903121956 -17 0.0 0.0 0.00 0.00 0.00 1019.7
20260903121450 -17 0.0 0.0 0.00 0.00 0.00 1019.8
20260903120947 -17 0.0 0.0 0.00 0.00 0.00 1019.6
20260903120445 -17 0.0 0.0 0.00 0.00 0.00 1019.8
20260903115944 -17 0.0 0.0 0.00 0.00 0.00 1019.6
20260903115443 -17 0.0 0.0 0.00 0.00 0.00 1019.8
20260903114938 -17 0.0 0.0 0.00 0.00 0.00 1019.6
20260903114434 -17 0.0 0.0 0.00 0.00 0.00 1019.6
20260903113929 -17 0.0 0.0 0.00 0.00 0.00 1019.5
20260903113425 -17 0.0 0.0 0.00 0.00 0.00 1019.5
20260903112921 -17 0.0 0.0 0.00 0.00 0.00 1019.5
20260903112416 -17 0.0 0.0 0.00 0.00 0.00 1019.5
20260903111915 -17 0.0 0.0 0.00 0.00 0.00 1019.4
20260903111415 -17 0.0 0.0 0.00 0.00 0.00 1019.3
20260903110911 -17 0.0 0.0 0.00 0.00 0.00 1019.3
20260903110407 -17 0.0 0.0 0.00 0.00 0.00 1019.2
20260903105901 -17 0.0 0.0 0.00 0.00 0.00 1019.5
20260903105357 -17 0.0 0.0 0.00 0.00 0.00 1019.4
20260903104856 -17 0.0 0.0 0.00 0.00 0.00 1019.2
20260903104350 -17 0.0 0.0 0.00 0.00 0.00 1019.2
20260903103848 -17 0.0 0.0 0.00 0.00 0.00 1019.4
20260903103344 -17 0.0 0.0 0.00 0.00 0.00 1019.1
20260903102838 -17 0.0 0.0 0.00 0.00 0.00 1019.1
20260903102333 -17 0.0 0.0 0.00 0.00 0.00 1019.2
20260903101833 -17 0.0 0.0 0.00 0.00 0.00 1019.1
20260903101328 -17 0.0 0.0 0.00 0.00 0.00 1019.2
20260903100823 -17 0.0 0.0 0.00 0.00 0.00 1018.8
20260903100317 -17 0.0 0.0 0.00 0.00 0.00 1019.1
20260903095815 -17 0.0 0.0 0.00 0.00 0.00 1018.9
20260903095309 -17 0.0 0.0 0.00 0.00 0.00 1019.1
20260903094804 -17 0.0 0.0 0.00 0.00 0.00 1019.1
20260903094259 -17 0.0 0.0 0.00 0.00 0.00 1018.8
20260903093755 -17 0.0 0.0 0.00 0.00 0.00 1018.9
20260903093249 -17 0.0 0.0 0.00 0.00 0.00 1019.1
20260903092744 -17 0.0 0.0 0.00 0.00 0.00 1018.9
20260903092239 -17 0.0 0.0 0.00 0.00 0.00 1018.9
20260903091738 -17 0.0 0.0 0.00 0.00 0.00 1018.8
20260903091232 -17 0.0 0.0 0.00 0.00 0.00 1018.9
20260903090728 -17 0.0 0.0 0.00 0.00 0.00 1018.7
20260903090226 -17 0.0 0.0 0.00 0.00 0.00 1018.8
20260903085726 -17 0.0 0.0 0.00 0.00 0.00 1018.8
20260903085221 -17 0.0 0.0 0.00 0.00 0.00 1018.8
20260903084719 -17 0.0 0.0 0.00 0.00 0.00 1018.8
20260903084214 -17 0.0 0.0 0.00 0.00 0.00 1018.6
20260903083710 -17 0.0 0.0 0.00 0.00 0.00 1018.7
20260903083209 -17 0.0 0.0 0.00 0.00 0.00 1018.7
20260903082703 -17 0.0 0.0 0.00 0.00 0.00 1018.7
20260903082159 -17 0.0 0.0 0.00 0.00 0.00 1018.7
20260903081653 -17 0.0 0.0 0.00 0.00 0.00 1018.9
20260903081150 -17 0.0 0.0 0.00 0.00 0.00 1018.7
20260903080645 -17 0.0 0.0 0.00 0.00 0.00 1018.7
20260903080143 -17 0.0 0.0 0.00 0.00 0.00 1018.5
20260903075642 -17 0.0 0.0 0.00 0.00 0.00 1018.5
20260903075137 -17 0.0 0.0 0.00 0.00 0.00 1018.5
20260903074636 -17 0.0 0.0 0.00 0.00 0.00 1018.7
20260903074132 -17 0.0 0.0 0.00 0.00 0.00 1018.6
20260903073627 -17 0.0 0.0 0.00 0.00 0.00 1018.8
20260903073122 -17 0.0 0.0 0.00 0.00 0.00 1018.7
20260903072618 -17 0.0 0.0 0.00 0.00 0.00 1018.6
20260903072114 -17 0.0 0.0 0.00 0.00 0.00 1018.5
20260903071611 -17 0.0 0.0 0.00 0.00 0.00 1018.8
20260903071111 -17 0.0 0.0 0.00 0.00 0.00 1018.7
20260903070605 -17 0.0 0.0 0.00 0.00 0.00 1018.7
20260903065600 -17 0.0 0.0 0.00 0.00 0.00 1018.8
20260903065055 -17 0.0 0.0 0.00 0.00 0.00 1018.9
20260903064554 -17 0.0 0.0 0.00 0.00 0.00 1019.1
20260903064050 -17 0.0 0.0 0.00 0.00 0.00 1019.1
20260903063545 -17 0.0 0.0 0.00 0.00 0.00 1018.9
20260903063041 -17 0.0 0.0 0.00 0.00 0.00 1018.7
20260903062536 -17 0.0 0.0 0.00 0.00 0.00 1019.1
20260903062031 -17 0.0 0.0 0.00 0.00 0.00 1018.8
20260903061527 -17 0.0 0.0 0.00 0.00 0.00 1019.1
20260903061026 -17 0.0 0.0 0.00 0.00 0.00 1018.9
20260903060526 -17 0.0 0.0 0.00 0.00 0.00 1018.9
20260903060021 -17 0.0 0.0 0.00 0.00 0.00 1018.8
20260903055518 -17 0.0 0.0 0.00 0.00 0.00 1018.9
20260903055017 -17 0.0 0.0 0.00 0.00 0.00 1018.9
20260903054513 -17 0.0 0.0 0.00 0.00 0.00 1018.7
20260903054008 -17 0.0 0.0 0.00 0.00 0.00 1018.9
20260903053503 -17 0.0 0.0 0.00 0.00 0.00 1018.9
20260903052959 -17 0.0 0.0 0.00 0.00 0.00 1018.7
20260903052454 -17 0.0 0.0 0.00 0.00 0.00 1018.7
20260903051950 -17 0.0 0.0 0.00 0.00 0.00 1018.7
20260903051445 -17 0.0 0.0 0.00 0.00 0.00 1018.7
20260903050941 -17 0.0 0.0 0.00 0.00 0.00 1018.7
20260903050440 -17 0.0 0.0 0.00 0.00 0.00 1018.7
20260903045934 -17 0.0 0.0 0.00 0.00 0.00 1018.6
20260903045430 -17 0.0 0.0 0.00 0.00 0.00 1018.5
20260903044926 -17 0.0 0.0 0.00 0.00 0.00 1018.7
20260903044427 -17 0.0 0.0 0.00 0.00 0.00 1018.7
20260903043923 -17 0.0 0.0 0.00 0.00 0.00 1018.4
20260903043419 -17 0.0 0.0 0.00 0.00 0.00 1018.6
20260903042917 -17 0.0 0.0 0.00 0.00 0.00 1018.5
20260903042413 -17 0.0 0.0 0.00 0.00 0.00 1018.6
20260903041908 -17 0.0 0.0 0.00 0.00 0.00 1018.8
20260903041404 -17 0.0 0.0 0.00 0.00 0.00 1018.6
20260903040900 -17 0.0 0.0 0.00 0.00 0.00 1018.8
20260903040359 -17 0.0 0.0 0.00 0.00 0.00 1018.7
20260903035855 -17 0.0 0.0 0.00 0.00 0.00 1018.8
20260903035350 -17 0.0 0.0 0.00 0.00 0.00 1018.7
20260903034846 -17 0.0 0.0 0.00 0.00 0.00 1018.7
20260903034341 -17 0.0 0.0 0.00 0.00 0.00 1018.7
20260903033836 -17 0.0 0.0 0.00 0.00 0.00 1018.5
20260903033331 -17 0.0 0.0 0.00 0.00 0.00 1018.6
20260903032830 -17 0.0 0.0 0.00 0.00 0.00 1018.6
20260903032327 -17 0.0 0.0 0.00 0.00 0.00 1018.4
20260903031822 -17 0.0 0.0 0.00 0.00 0.00 1018.6
20260903031321 -17 0.0 0.0 0.00 0.00 0.00 1018.5
20260903030817 -17 0.0 0.0 0.00 0.00 0.00 1018.6
20260903030313 -17 0.0 0.0 0.00 0.00 0.00 1018.3
20260903025808 -17 0.0 0.0 0.00 0.00 0.00 1018.7
20260903025306 -17 0.0 0.0 0.00 0.00 0.00 1018.6
20260903024758 -17 0.0 0.0 0.00 0.00 0.00 1018.7
20260903024257 -17 0.0 0.0 0.00 0.00 0.00 1018.4
20260903023753 -17 0.0 0.0 0.00 0.00 0.00 1018.5
20260903023249 -17 0.0 0.0 0.00 0.00 0.00 1018.3
20260903022748 -17 0.0 0.0 0.00 0.00 0.00 1018.4
20260903022248 -17 0.0 0.0 0.00 0.00 0.00 1018.4
20260903021747 -17 0.0 0.0 0.00 0.00 0.00 1018.1
20260903021242 -17 0.0 0.0 0.00 0.00 0.00 1018.1
20260903020737 -17 0.0 0.0 0.00 0.00 0.00 1018.1
20260903020231 -17 0.0 0.0 0.00 0.00 0.00 1018.2
20260903015727 -17 0.0 0.0 0.00 0.00 0.00 1017.8
20260903015222 -17 0.0 0.0 0.00 0.00 0.00 1018.0
20260903014718 -17 0.0 0.0 0.00 0.00 0.00 1017.8
20260903014217 -17 0.0 0.0 0.00 0.00 0.00 1017.9
20260903013712 -17 0.0 0.0 0.00 0.00 0.00 1017.7
20260903013211 -17 0.0 0.0 0.00 0.00 0.00 1017.7
20260903012709 -17 0.0 0.0 0.00 0.00 0.00 1017.7
20260903012204 -17 0.0 0.0 0.00 0.00 0.00 1017.7
20260903011659 -17 0.0 0.0 0.00 0.00 0.00 1017.5
20260903011158 -17 0.0 0.0 0.00 0.00 0.00 1017.3
20260903010654 -17 0.0 0.0 0.00 0.00 0.00 1017.3
20260903010153 -17 0.0 0.0 0.00 0.00 0.00 1017.4
20260903005653 -17 0.0 0.0 0.00 0.00 0.00 1017.4
20260903005148 -17 0.0 0.0 0.00 0.00 0.00 1017.5
20260903004643 -17 0.0 0.0 0.00 0.00 0.00 1017.3
20260903004138 -17 0.0 0.0 0.00 0.00 0.00 1017.2
20260903003634 -17 0.0 0.0 0.00 0.00 0.00 1017.4
20260903003129 -17 0.0 0.0 0.00 0.00 0.00 1017.1
20260903002624 -17 0.0 0.0 0.00 0.00 0.00 1017.2
20260903002119 -17 0.0 0.0 0.00 0.00 0.00 1017.2
20260903001613 -17 0.0 0.0 0.00 0.00 0.00 1017.2
20260903001113 -17 0.0 0.0 0.00 0.00 0.00 1017.4
20260903000608 -17 0.0 0.0 0.00 0.00 0.00 1017.6